Total_Precipitation_Accumulation
1.21 1.31 1.36 1.36 1.30 1.41 1.42 1.40 1.43 1.47 1.41 1.46 1.56 1.65 1.64 1.68 1.78 1.88 1.75 1.83 1.94 2.11 2.05 2.04 2.09 2.19 2.16 2.07 2.15 2.22 2.35 2.62 2.59 2.14 2.04 2.04 1.91 1.71 1.63 1.55 1.51 1.59 1.60
1.18 1.30 1.38 1.51 1.47 1.42 1.40 1.44 1.47 1.56 1.61 1.60 1.68 1.71 1.57 1.59 1.78 1.86 1.85 1.89 1.94 2.00 2.18 2.39 2.35 2.38 2.30 2.17 2.27 2.21 2.27 2.55 2.49 2.27 2.29 2.30 2.24 2.03 1.89 1.72 1.55 1.53 1.61
1.25 1.33 1.47 1.54 1.44 1.38 1.49 1.58 1.61 1.75 1.89 1.96 1.94 1.79 1.69 1.67 1.74 1.85 1.95 1.96 1.99 2.07 2.21 2.31 2.35 2.49 2.38 2.28 2.22 2.19 2.27 2.43 2.51 2.35 2.32 2.47 2.39 2.14 2.00 1.77 1.58 1.63 1.47
1.34 1.48 1.55 1.58 1.53 1.51 1.59 1.70 1.73 1.80 1.96 2.09 2.04 1.95 1.91 1.82 1.69 1.66 1.71 1.81 1.98 2.14 2.19 2.11 2.19 2.42 2.48 2.46 2.28 2.24 2.34 2.47 2.50 2.44 2.39 2.49 2.51 2.45 2.28 2.04 1.92 1.77 1.60
1.48 1.63 1.67 1.77 1.79 1.83 1.94 1.95 1.88 1.88 1.91 2.06 2.11 2.11 2.05 1.89 1.66 1.70 1.83 1.84 2.02 2.06 2.00 1.89 1.88 2.08 2.32 2.40 2.20 2.19 2.31 2.33 2.34 2.37 2.38 2.43 2.48 2.61 2.50 2.22 1.98 1.83 1.61
1.67 1.99 2.01 2.04 2.04 2.12 2.29 2.36 2.26 2.22 2.30 2.33 2.26 2.20 2.11 1.76 1.83 1.85 1.84 1.89 2.02 2.05 2.00 1.92 1.80 1.77 1.80 1.93 2.06 2.18 2.30 2.26 2.26 2.41 2.57 2.62 2.61 2.61 2.60 2.39 2.11 1.88 1.73
1.83 2.08 2.22 2.27 2.29 2.36 2.45 2.47 2.41 2.50 2.66 2.68 2.56 2.38 2.23 2.13 2.02 1.80 1.74 1.67 1.73 1.79 1.85 1.85 1.58 1.42 1.53 1.46 1.64 1.80 1.92 1.99 2.01 2.17 2.33 2.43 2.55 2.69 2.73 2.51 2.31 2.12 1.87
2.08 2.21 2.32 2.33 2.34 2.37 2.41 2.33 2.36 2.49 2.57 2.60 2.53 2.40 2.29 2.21 2.06 1.71 1.61 1.42 1.48 1.53 1.57 1.58 1.53 1.46 1.44 1.49 1.49 1.48 1.47 1.55 1.65 1.67 1.79 2.03 2.28 2.49 2.65 2.57 2.46 2.17 1.89
2.12 2.15 2.13 2.21 2.29 2.32 2.33 2.37 2.41 2.41 2.30 2.20 2.17 2.17 2.14 2.17 2.10 1.74 1.54 1.38 1.49 1.52 1.53 1.56 1.59 1.52 1.63 1.50 1.45 1.49 1.50 1.52 1.56 1.60 1.62 1.78 2.04 2.21 2.32 2.39 2.35 2.21 1.97
2.12 2.13 2.09 2.19 2.29 2.32 2.36 2.41 2.35 2.27 2.20 2.15 2.05 2.06 2.06 2.04 2.04 1.66 1.51 1.41 1.52 1.53 1.57 1.58 1.57 1.46 1.48 1.34 1.28 1.41 1.43 1.45 1.49 1.49 1.51 1.54 1.62 1.94 2.24 2.08 2.09 2.12 1.93
1.93 2.04 2.16 2.33 2.40 2.41 2.44 2.40 2.32 2.22 2.22 2.22 2.13 2.05 2.02 1.98 2.00 1.70 1.51 1.35 1.50 1.67 1.66 1.60 1.59 1.51 1.23 1.15 1.11 1.13 1.19 1.23 1.32 1.33 1.29 1.29 1.39 1.54 1.79 1.88 1.85 1.80 1.76
1.79 1.91 1.97 2.10 2.22 2.23 2.30 2.25 2.25 2.20 2.13 2.07 1.97 1.87 1.84 1.86 1.76 1.61 1.40 1.27 1.34 1.49 1.60 1.61 1.60 1.46 1.17 1.05 0.95 0.94 0.94 0.91 0.99 1.11 1.17 1.19 1.24 1.36 1.50 1.65 1.73 1.77 1.66
1.66 1.79 1.89 1.96 2.12 2.16 2.18 2.12 2.05 2.01 1.92 1.82 1.72 1.65 1.66 1.70 1.64 1.41 1.22 1.13 1.18 1.26 1.41 1.56 1.46 1.27 1.09 0.93 0.87 0.84 0.80 0.76 0.88 1.03 1.11 1.11 1.12 1.20 1.45 1.73 1.89 1.97 1.90
1.67 1.69 1.78 1.85 1.94 2.11 2.13 1.99 1.86 1.75 1.67 1.65 1.60 1.61 1.64 1.66 1.59 1.40 1.20 1.06 1.08 1.14 1.21 1.29 1.29 1.26 1.19 1.08 0.97 0.87 0.78 0.84 0.94 1.03 1.15 1.27 1.38 1.46 1.55 1.64 1.81 1.88 1.90
1.39 1.36 1.36 1.48 1.64 1.82 1.87 1.81 1.65 1.54 1.61 1.65 1.61 1.58 1.51 1.45 1.49 1.44 1.26 1.19 1.21 1.25 1.20 1.22 1.24 1.32 1.36 1.36 1.32 1.22 1.14 1.12 1.08 1.07 1.22 1.35 1.36 1.37 1.40 1.50 1.66 1.70 1.60
1.36 1.26 1.23 1.24 1.33 1.53 1.74 1.81 1.67 1.45 1.49 1.44 1.37 1.32 1.30 1.27 1.26 1.26 1.21 1.15 1.18 1.18 1.09 1.21 1.36 1.45 1.53 1.55 1.53 1.41 1.26 1.14 1.08 1.11 1.18 1.27 1.31 1.32 1.36 1.47 1.60 1.60 1.46
1.36 1.31 1.25 1.22 1.25 1.37 1.60 1.82 1.88 1.65 1.43 1.31 1.16 1.05 1.01 1.00 1.04 1.09 1.14 1.10 1.07 1.01 0.94 1.08 1.24 1.32 1.39 1.41 1.41 1.34 1.28 1.22 1.21 1.24 1.30 1.36 1.42 1.42 1.42 1.45 1.54 1.57 1.47
1.28 1.26 1.15 1.11 1.18 1.30 1.52 1.80 1.98 1.92 1.72 1.45 1.16 0.97 0.92 0.89 0.91 0.98 1.03 0.97 0.91 0.85 0.81 0.93 1.06 1.16 1.27 1.40 1.46 1.43 1.40 1.36 1.30 1.27 1.35 1.38 1.43 1.48 1.45 1.40 1.45 1.52 1.49
1.22 1.23 1.19 1.16 1.18 1.22 1.44 1.73 1.93 1.99 1.88 1.69 1.33 1.03 0.91 0.85 0.84 0.93 0.92 0.86 0.87 0.84 0.81 0.84 0.91 1.05 1.23 1.39 1.51 1.58 1.59 1.52 1.39 1.36 1.38 1.40 1.39 1.46 1.43 1.36 1.40 1.52 1.51
1.08 1.10 1.01 1.00 1.06 1.08 1.17 1.38 1.64 1.81 1.78 1.68 1.42 1.01 0.75 0.69 0.75 0.91 0.96 1.01 1.01 0.93 0.89 0.90 0.95 1.04 1.21 1.38 1.46 1.48 1.53 1.48 1.44 1.41 1.36 1.40 1.43 1.43 1.39 1.36 1.38 1.45 1.41
1.02 1.01 0.93 0.85 0.91 0.96 1.04 1.24 1.51 1.69 1.64 1.54 1.37 1.04 0.83 0.78 0.87 0.94 1.04 1.08 1.08 1.02 0.98 0.94 0.93 1.00 1.14 1.28 1.35 1.40 1.44 1.42 1.36 1.36 1.35 1.37 1.44 1.48 1.50 1.48 1.45 1.47 1.49
0.83 0.86 0.83 0.82 0.88 0.93 0.96 1.14 1.41 1.56 1.50 1.41 1.32 1.14 1.01 0.98 1.05 1.11 1.12 1.07 1.02 0.95 0.93 0.97 0.99 1.04 1.13 1.19 1.26 1.37 1.43 1.42 1.38 1.35 1.36 1.39 1.44 1.46 1.51 1.53 1.49 1.47 1.49
0.71 0.71 0.70 0.72 0.77 0.84 0.96 1.13 1.28 1.34 1.32 1.31 1.19 1.05 1.02 1.04 1.05 1.08 1.09 1.06 1.00 0.95 0.94 0.99 1.04 1.08 1.13 1.15 1.17 1.26 1.32 1.32 1.34 1.34 1.40 1.46 1.47 1.47 1.50 1.50 1.47 1.49 1.48
0.74 0.78 0.79 0.81 0.85 0.95 1.06 1.16 1.21 1.18 1.13 1.11 1.08 1.07 1.08 1.08 1.05 1.04 1.05 1.05 1.05 1.06 1.06 1.04 1.04 1.04 1.05 1.07 1.09 1.09 1.14 1.14 1.13 1.17 1.23 1.33 1.39 1.40 1.40 1.43 1.43 1.45 1.46
0.65 0.73 0.81 0.92 0.98 1.03 1.08 1.12 1.12 1.09 1.02 0.97 0.98 1.03 1.05 1.03 1.06 1.05 1.04 1.03 1.01 0.99 0.94 0.94 0.94 0.91 0.88 0.86 0.84 0.86 0.95 0.92 0.87 0.91 0.99 1.13 1.21 1.24 1.26 1.31 1.37 1.43 1.47
0.62 0.64 0.71 0.79 0.83 0.89 1.00 1.09 1.08 1.00 0.92 0.89 0.92 0.97 0.96 0.94 0.96 0.97 0.96 0.99 1.00 0.97 0.95 0.92 0.86 0.83 0.81 0.79 0.78 0.82 0.81 0.73 0.70 0.74 0.76 0.87 1.03 1.12 1.18 1.24 1.29 1.39 1.43